sat.trackr.live / text

‹ back to catalog

FLOCK 4Q-28

NORAD 58280 · 2023-174AA

PAYLOAD ACTIVE UNKNOWN

§ Identity

Operator
Country
US
Launch date
2023-11-11
Launch site
AFWTR
Launch vehicle
Mass (kg)
RCS (m²)

Purposes: earth_obs

External: N2YO · Heavens-Above · Gunter

§ Orbital elements

Epoch: 2026-05-25T04:39:14.597280Z

Period
92.70 min
Inclination
97.3880°
Eccentricity
0.0005183
Mean motion
15.53356108 rev/d
Perigee alt
403.4 km
Apogee alt
410.5 km
Semi-major
6,785.1 km
B*
4.7407e-4
RAAN
235.6571°
Arg perigee
210.4516°
Mean anomaly
149.6437°
Rev number
14,217

§ Raw data

FLOCK 4Q-281 58280U 23174AA  26145.19391895  .00029925  00000+0  47407-3 0  99942 58280  97.3880 235.6571 0005183 210.4516 149.6437 15.53356108142171

JSON: /api/v1/satellites/58280 · /tle

For live sub-satellite position, see the globe view (requires WebGL).

§ Visibility from observer

Set your observer location to see the next 7 days of passes ≥ 10°. The values pass through the URL so the page stays shareable.

No JS? Fill the form by hand. The geolocation button needs JavaScript.